Location: Byszew
(52.1813°N, 19.2693°E)
Time: 22:03:39
(UTC+00:00)

Cosmos 2322 Rocket - Pass Details

Date: 01 July 2021
Orbit: 833 x 850 km, 71.0° (Epoch: 26 July)

Event Time Altitude Azimuth Distance (km) Brightness Sun altitude
Rises 01:19:20 0° 329° (NNW) 3,422 5.7 -7.7°
Reaches altitude 10° 01:21:50 10° 334° (NNW) 2,481 5.0 -7.5°
Maximum altitude 01:27:28 59° 54° (NE) 974 3.0 -7.0°
Drops below altitude 10° 01:33:02 10° 133° (SE) 2,455 4.6 -6.4°
Sets 01:35:30 0° 138° (SE) 3,383 5.2 -6.2°
